| time (UTC) | temp C | wind direction | speed KPH | gust KPH | rain 1hr cm | rain 24hr cm | rain mn cm | humidity % | barometer mb |
| 20260505024420 | 26 | 5 | 1.6 | 4.8 | 0.00 | 0.00 | 0.00 | 64 | 1015.6 |
| 20260505022159 | 26 | 319 | 1.6 | 8.0 | 0.00 | 0.00 | 0.00 | 63 | 1015.8 |
| 20260505020655 | 26 | 250 | 1.6 | 4.8 | 0.00 | 0.00 | 0.00 | 64 | 1016.2 |
| 20260505015202 | 26 | 84 | 1.6 | 8.0 | 0.00 | 0.00 | 0.00 | 62 | 1016.4 |
| 20260505013655 | 26 | 84 | 3.2 | 6.4 | 0.00 | 0.00 | 0.00 | 65 | 1016.5 |
| 20260505012130 | 26 | 123 | 1.6 | 4.8 | 0.00 | 0.00 | 0.00 | 65 | 1017.0 |
| 20260505010629 | 26 | 348 | 1.6 | 6.4 | 0.00 | 0.00 | 0.00 | 68 | 1017.5 |
| 20260505005117 | 25 | 257 | 3.2 | 11.3 | 0.00 | 0.00 | 0.00 | 69 | 1017.6 |
| 20260505003619 | 25 | 265 | 3.2 | 9.7 | 0.00 | 0.00 | 0.00 | 71 | 1017.8 |
| 20260505003526 | 25 | 125 | 3.2 | 11.3 | 0.00 | 0.00 | 0.00 | 70 | 1017.9 |
| 20260505000558 | 24 | 209 | 3.2 | 12.9 | 0.00 | 0.00 | 0.00 | 74 | 1018.1 |
| 20260504235054 | 23 | 255 | 3.2 | 9.7 | 0.00 | 0.00 | 0.00 | 77 | 1018.1 |
| 20260504233559 | 23 | 176 | 3.2 | 8.0 | 0.00 | 0.00 | 0.00 | 77 | 1018.0 |
| 20260504232055 | 23 | 342 | 3.2 | 4.8 | 0.00 | 0.00 | 0.00 | 81 | 1018.1 |
| 20260504230543 | 22 | 282 | 1.6 | 3.2 | 0.00 | 0.00 | 0.00 | 86 | 1018.2 |
| 20260504225028 | 21 | 31 | 0.0 | 0.0 | 0.00 | 0.00 | 0.00 | 88 | 1018.4 |
| 20260504224212 | 20 | 31 | 0.0 | 3.2 | 0.00 | 0.00 | 0.00 | 90 | 1018.2 |
| 20260504222658 | 20 | 306 | 0.0 | 0.0 | 0.00 | 0.00 | 0.00 | 92 | 1018.2 |
| 20260504220518 | 18 | 306 | 0.0 | 0.0 | 0.00 | 0.00 | 0.00 | 93 | 1018.1 |
| 20260504220338 | 18 | 306 | 0.0 | 0.0 | 0.00 | 0.00 | 0.00 | 94 | 1018.1 |
| 20260504210444 | 16 | 306 | 0.0 | 0.0 | 0.00 | 0.00 | 0.00 | 92 | 1017.9 |
| 20260504204944 | 16 | 306 | 0.0 | 0.0 | 0.00 | 0.00 | 0.00 | 92 | 1017.7 |
| 20260504204150 | 16 | 306 | 0.0 | 0.0 | 0.00 | 0.00 | 0.00 | 92 | 1017.7 |
| 20260504201949 | 16 | 306 | 0.0 | 0.0 | 0.00 | 0.00 | 0.00 | 91 | 1017.6 |
| 20260504201825 | 16 | 306 | 0.0 | 0.0 | 0.00 | 0.00 | 0.00 | 92 | 1017.4 |
| 20260504193424 | 16 | 306 | 0.0 | 0.0 | 0.00 | 0.00 | 0.00 | 92 | 1017.3 |
| 20260504192715 | 16 | 306 | 0.0 | 0.0 | 0.00 | 0.00 | 0.00 | 91 | 1017.0 |
| 20260504190355 | 17 | 5 | 0.0 | 0.0 | 0.00 | 0.00 | 0.00 | 91 | 1016.9 |
| 20260504184825 | 17 | 5 | 0.0 | 1.6 | 0.00 | 0.00 | 0.00 | 91 | 1017.0 |
| 20260504183327 | 17 | 5 | 0.0 | 0.0 | 0.00 | 0.00 | 0.00 | 91 | 1016.9 |
| 20260504181829 | 17 | 5 | 0.0 | 0.0 | 0.00 | 0.00 | 0.00 | 91 | 1016.7 |
| 20260504180306 | 17 | 5 | 0.0 | 0.0 | 0.00 | 0.00 | 0.00 | 91 | 1016.6 |
| 20260504175456 | 17 | 5 | 0.0 | 0.0 | 0.00 | 0.00 | 0.00 | 91 | 1016.6 |
| 20260504173304 | 17 | 5 | 0.0 | 0.0 | 0.00 | 0.00 | 0.00 | 91 | 1016.5 |
| 20260504170253 | 17 | 5 | 0.0 | 0.0 | 0.00 | 0.03 | 0.00 | 91 | 1016.7 |
| 20260504160227 | 17 | 266 | 0.0 | 0.0 | 0.00 | 0.03 | 0.00 | 91 | 1017.0 |
| 20260504150219 | 18 | 266 | 0.0 | 0.0 | 0.00 | 0.03 | 0.00 | 90 | 1017.2 |
| 20260504140130 | 18 | 266 | 0.0 | 1.6 | 0.00 | 0.03 | 0.00 | 90 | 1017.7 |
| 20260504045557 | 26 | 46 | 3.2 | 11.3 | 0.00 | 0.03 | 0.03 | 65 | 1016.8 |
| 20260504044040 | 26 | 122 | 3.2 | 17.7 | 0.00 | 0.03 | 0.03 | 64 | 1016.5 |
| 20260504042517 | 26 | 87 | 6.4 | 17.7 | 0.00 | 0.03 | 0.03 | 64 | 1016.6 |
| 20260504040954 | 26 | 77 | 4.8 | 12.9 | 0.00 | 0.03 | 0.03 | 66 | 1016.6 |
| 20260504035440 | 26 | 58 | 3.2 | 11.3 | 0.00 | 0.03 | 0.03 | 67 | 1017.0 |
| 20260504033938 | 27 | 32 | 3.2 | 14.5 | 0.00 | 0.03 | 0.03 | 66 | 1016.8 |
| 20260504032426 | 27 | 158 | 4.8 | 16.1 | 0.00 | 0.03 | 0.03 | 66 | 1017.0 |
| 20260504030924 | 26 | 30 | 3.2 | 12.9 | 0.00 | 0.03 | 0.03 | 67 | 1017.1 |
| 20260504025422 | 26 | 87 | 1.6 | 12.9 | 0.00 | 0.03 | 0.03 | 67 | 1017.2 |